CPA014 EDDF-LIMC

Flight info

Callsign CPA014
Flight time 0h 48m
Altitude 31000
Route ANEKI2L/18 ANEKI Y163 PABLA/N0491F330 Y163 NATOR DCT DITON DCT BASGO Z424 RIXUV
Aircraft B748/H-SDE3FGHIM1M2RWXY/LB1

Departure

Time 2026-04-15 12:01
Airport Frankfurt Main Airport (EDDF)

Arrival

Time 2026-04-15 12:50
Airport Milan Malpensa International Airport (LIMC)
Time Latitude Longitude Altitude Speed Heading
2026-04-15 11:25 50.02876 8.56909 340 ft 0 kts 249°
2026-04-15 11:44 50.02880 8.56924 370 ft 2 kts 249°
2026-04-15 11:44 50.02886 8.56948 372 ft 2 kts 249°
2026-04-15 11:45 50.02892 8.56972 372 ft 2 kts 250°
2026-04-15 11:45 50.02897 8.56997 372 ft 2 kts 254°
2026-04-15 11:45 50.02900 8.57022 370 ft 2 kts 275°
2026-04-15 11:45 50.02896 8.57047 371 ft 2 kts 321°
2026-04-15 11:46 50.02881 8.57058 373 ft 2 kts 339°
2026-04-15 11:46 50.02875 8.57062 372 ft 0 kts 340°
2026-04-15 11:54 50.02885 8.57054 371 ft 4 kts 333°
2026-04-15 11:54 50.02954 8.57013 375 ft 16 kts 340°
2026-04-15 11:54 50.03104 8.56925 377 ft 27 kts 338°
2026-04-15 11:54 50.03271 8.56829 372 ft 25 kts 339°
2026-04-15 11:55 50.03353 8.56735 376 ft 9 kts 276°
2026-04-15 11:55 50.03336 8.56645 374 ft 11 kts 249°
2026-04-15 11:55 50.03294 8.56480 375 ft 22 kts 249°
2026-04-15 11:55 50.03227 8.56211 371 ft 32 kts 249°
2026-04-15 11:56 50.03144 8.55845 375 ft 40 kts 250°
2026-04-15 11:56 50.03043 8.55419 375 ft 41 kts 249°
2026-04-15 11:56 50.02944 8.55021 375 ft 38 kts 250°
2026-04-15 11:56 50.02909 8.54790 373 ft 5 kts 292°
2026-04-15 11:57 50.02911 8.54785 372 ft 0 kts 300°
2026-04-15 11:57 50.02918 8.54766 373 ft 10 kts 300°
2026-04-15 11:57 50.03019 8.54645 359 ft 23 kts 341°
2026-04-15 11:58 50.03157 8.54568 361 ft 19 kts 339°
2026-04-15 11:58 50.03235 8.54400 363 ft 22 kts 263°
2026-04-15 11:58 50.03173 8.54144 368 ft 29 kts 249°
2026-04-15 11:58 50.03102 8.53861 367 ft 27 kts 250°
2026-04-15 11:59 50.03069 8.53616 365 ft 9 kts 296°
2026-04-15 11:59 50.03112 8.53580 368 ft 10 kts 339°
2026-04-15 11:59 50.03207 8.53526 364 ft 20 kts 344°
2026-04-15 11:59 50.03294 8.53584 356 ft 11 kts 64°
2026-04-15 12:00 50.03327 8.53717 359 ft 17 kts 71°
2026-04-15 12:00 50.03443 8.54236 361 ft 90 kts 70°
2026-04-15 12:00 50.03657 8.55116 360 ft 142 kts 70°
2026-04-15 12:00 50.03939 8.56295 366 ft 182 kts 69°
2026-04-15 12:01 50.04447 8.58290 458 ft 211 kts 71°
2026-04-15 12:01 50.04670 8.59271 481 ft 222 kts 70°
2026-04-15 12:01 50.05232 8.61534 1032 ft 224 kts 70°
2026-04-15 12:01 50.05729 8.63931 1521 ft 236 kts 73°
2026-04-15 12:02 50.06201 8.66361 2273 ft 239 kts 73°
2026-04-15 12:02 50.06660 8.68756 3505 ft 221 kts 74°
2026-04-15 12:02 50.07102 8.71093 4419 ft 227 kts 79°
2026-04-15 12:02 50.07054 8.73513 5364 ft 227 kts 111°
2026-04-15 12:03 50.06186 8.75563 6198 ft 230 kts 143°
2026-04-15 12:03 50.04749 8.76637 7051 ft 233 kts 175°
2026-04-15 12:03 50.03145 8.76395 7878 ft 235 kts 199°
2026-04-15 12:03 50.01585 8.75537 8725 ft 240 kts 201°
2026-04-15 12:04 49.99977 8.74829 9487 ft 253 kts 193°
2026-04-15 12:04 49.98175 8.74158 9903 ft 279 kts 194°
2026-04-15 12:04 49.96258 8.73425 10707 ft 288 kts 194°
2026-04-15 12:04 49.94224 8.72684 11082 ft 313 kts 194°
2026-04-15 12:05 49.92016 8.71898 11401 ft 339 kts 194°
2026-04-15 12:05 49.89632 8.71037 11694 ft 364 kts 194°
2026-04-15 12:05 49.87119 8.70123 12442 ft 372 kts 194°
2026-04-15 12:05 49.84576 8.69199 13346 ft 378 kts 194°
2026-04-15 12:06 49.81992 8.68268 14185 ft 384 kts 194°
2026-04-15 12:06 49.79371 8.67322 14956 ft 389 kts 195°
2026-04-15 12:06 49.77771 8.66630 15416 ft 392 kts 197°
2026-04-15 12:06 49.76138 8.65918 15868 ft 395 kts 195°
2026-04-15 12:07 49.73452 8.64897 16633 ft 400 kts 194°
2026-04-15 12:07 49.70735 8.63859 17372 ft 405 kts 195°
2026-04-15 12:07 49.67998 8.62715 18116 ft 410 kts 196°
2026-04-15 12:07 49.65232 8.61545 18817 ft 415 kts 195°
2026-04-15 12:08 49.62428 8.60415 19460 ft 419 kts 195°
2026-04-15 12:08 49.59585 8.59289 20089 ft 424 kts 195°
2026-04-15 12:08 49.56751 8.58139 20689 ft 428 kts 195°
2026-04-15 12:08 49.53851 8.56948 21284 ft 432 kts 195°
2026-04-15 12:09 49.50923 8.55762 21877 ft 436 kts 195°
2026-04-15 12:09 49.47970 8.54579 22466 ft 440 kts 195°
2026-04-15 12:09 49.44995 8.53382 23029 ft 445 kts 195°
2026-04-15 12:09 49.41990 8.52165 23582 ft 449 kts 196°
2026-04-15 12:10 49.38944 8.50937 24060 ft 453 kts 196°
2026-04-15 12:10 49.35876 8.49707 24477 ft 457 kts 196°
2026-04-15 12:10 49.32787 8.48474 24906 ft 461 kts 194°
2026-04-15 12:10 49.29596 8.47738 25301 ft 467 kts 186°
2026-04-15 12:11 49.26359 8.47330 25694 ft 471 kts 186°
2026-04-15 12:11 49.23073 8.46929 26091 ft 475 kts 186°
2026-04-15 12:11 49.19766 8.46496 26491 ft 479 kts 186°
2026-04-15 12:11 49.16429 8.46046 26881 ft 483 kts 186°
2026-04-15 12:12 49.13065 8.45609 27263 ft 487 kts 186°
2026-04-15 12:12 49.09671 8.45181 27641 ft 491 kts 186°
2026-04-15 12:12 49.06255 8.44741 28023 ft 495 kts 186°
2026-04-15 12:12 49.02800 8.44265 28400 ft 499 kts 187°
2026-04-15 12:13 48.99339 8.43741 28768 ft 503 kts 187°
2026-04-15 12:13 48.95885 8.43227 29149 ft 507 kts 187°
2026-04-15 12:13 48.92360 8.42738 29527 ft 511 kts 187°
2026-04-15 12:13 48.88807 8.42246 29898 ft 515 kts 187°
2026-04-15 12:14 48.85227 8.41728 30266 ft 519 kts 187°
2026-04-15 12:14 48.81622 8.41202 30582 ft 522 kts 187°
2026-04-15 12:14 48.77999 8.40689 30892 ft 525 kts 187°
2026-04-15 12:14 48.74349 8.40181 31198 ft 529 kts 187°
2026-04-15 12:15 48.70661 8.39657 31203 ft 534 kts 187°
2026-04-15 12:15 48.63283 8.38605 31198 ft 531 kts 187°
2026-04-15 12:16 48.55939 8.37574 31194 ft 530 kts 187°
2026-04-15 12:16 48.48588 8.36536 31197 ft 531 kts 187°
2026-04-15 12:17 48.41271 8.35512 31197 ft 531 kts 186°
2026-04-15 12:17 48.33906 8.34480 31195 ft 532 kts 186°
2026-04-15 12:18 48.26546 8.33453 31197 ft 532 kts 186°
2026-04-15 12:18 48.19166 8.32427 31200 ft 532 kts 186°
2026-04-15 12:19 48.11745 8.32156 31217 ft 534 kts 180°
2026-04-15 12:19 48.04339 8.32335 31216 ft 534 kts 180°
2026-04-15 12:20 47.96899 8.32386 31215 ft 535 kts 180°
2026-04-15 12:20 47.89453 8.32529 31222 ft 535 kts 180°
2026-04-15 12:21 47.82003 8.32607 31220 ft 536 kts 180°
2026-04-15 12:21 47.74599 8.32728 31226 ft 536 kts 180°
2026-04-15 12:22 47.67137 8.32820 31231 ft 536 kts 180°
2026-04-15 12:22 47.59669 8.32930 31234 ft 537 kts 180°
2026-04-15 12:23 47.52192 8.33030 31239 ft 538 kts 180°
2026-04-15 12:23 47.44714 8.33135 31238 ft 537 kts 180°
2026-04-15 12:24 47.37226 8.33237 31229 ft 538 kts 180°
2026-04-15 12:24 47.29731 8.33392 31225 ft 538 kts 176°
2026-04-15 12:25 47.22268 8.34430 31214 ft 539 kts 174°
2026-04-15 12:25 47.14799 8.35449 31211 ft 539 kts 175°
2026-04-15 12:26 47.07370 8.36460 31217 ft 540 kts 174°
2026-04-15 12:26 46.99878 8.37488 31245 ft 540 kts 174°
2026-04-15 12:27 46.92393 8.38495 31236 ft 542 kts 174°
2026-04-15 12:27 46.84870 8.39524 31206 ft 543 kts 174°
2026-04-15 12:28 46.77341 8.40532 31208 ft 544 kts 174°
2026-04-15 12:28 46.69801 8.41554 31187 ft 544 kts 174°
2026-04-15 12:29 46.62264 8.42563 31175 ft 544 kts 174°
2026-04-15 12:29 46.54726 8.43574 31174 ft 544 kts 174°
2026-04-15 12:30 46.47240 8.44573 31157 ft 544 kts 174°
2026-04-15 12:30 46.39693 8.45578 31158 ft 544 kts 174°
2026-04-15 12:31 46.32144 8.46581 31159 ft 545 kts 174°
2026-04-15 12:31 46.28395 8.47077 30877 ft 538 kts 174°
2026-04-15 12:31 46.24662 8.47579 30302 ft 535 kts 173°
2026-04-15 12:31 46.21018 8.48109 30246 ft 520 kts 173°
2026-04-15 12:32 46.17437 8.48643 30068 ft 515 kts 173°
2026-04-15 12:32 46.13857 8.49155 29809 ft 521 kts 173°
2026-04-15 12:32 46.10226 8.50016 29245 ft 539 kts 163°
2026-04-15 12:32 46.06650 8.51708 28384 ft 542 kts 157°
2026-04-15 12:33 46.03161 8.53735 27574 ft 539 kts 155°
2026-04-15 12:33 45.99685 8.55753 26814 ft 537 kts 158°
2026-04-15 12:33 45.96174 8.57565 26068 ft 535 kts 159°
2026-04-15 12:33 45.92675 8.59331 25349 ft 530 kts 157°
2026-04-15 12:34 45.89424 8.61583 24585 ft 506 kts 145°
2026-04-15 12:34 45.86655 8.64480 23586 ft 482 kts 137°
2026-04-15 12:34 45.84125 8.67524 22444 ft 470 kts 138°
2026-04-15 12:34 45.81583 8.70497 21484 ft 472 kts 140°
2026-04-15 12:35 45.79017 8.73409 20693 ft 469 kts 140°
2026-04-15 12:35 45.76449 8.76262 19892 ft 462 kts 145°
2026-04-15 12:35 45.73727 8.78487 18913 ft 441 kts 150°
2026-04-15 12:35 45.71075 8.80537 17801 ft 425 kts 151°
2026-04-15 12:36 45.68523 8.82494 16708 ft 409 kts 151°
2026-04-15 12:36 45.66053 8.84386 15649 ft 395 kts 151°
2026-04-15 12:36 45.63677 8.86213 14747 ft 379 kts 151°
2026-04-15 12:36 45.61337 8.87777 13930 ft 365 kts 164°
2026-04-15 12:37 45.58911 8.88565 13071 ft 351 kts 169°
2026-04-15 12:37 45.56546 8.89130 12192 ft 339 kts 170°
2026-04-15 12:37 45.54251 8.89700 11342 ft 329 kts 168°
2026-04-15 12:37 45.52028 8.90328 10528 ft 321 kts 167°
2026-04-15 12:38 45.50593 8.90738 9974 ft 316 kts 168°
2026-04-15 12:38 45.47769 8.91505 8817 ft 307 kts 168°
2026-04-15 12:38 45.45696 8.92059 7980 ft 300 kts 168°
2026-04-15 12:38 45.43643 8.92618 7362 ft 302 kts 168°
2026-04-15 12:39 45.41598 8.93176 6988 ft 297 kts 168°
2026-04-15 12:39 45.39550 8.93732 6331 ft 302 kts 168°
2026-04-15 12:39 45.37501 8.94287 5976 ft 296 kts 168°
2026-04-15 12:39 45.35524 8.94820 5777 ft 284 kts 168°
2026-04-15 12:40 45.34258 8.95163 5679 ft 275 kts 168°
2026-04-15 12:40 45.32422 8.95660 5535 ft 264 kts 168°
2026-04-15 12:40 45.30652 8.96139 5397 ft 254 kts 168°
2026-04-15 12:40 45.28945 8.96601 5259 ft 244 kts 168°
2026-04-15 12:41 45.27308 8.97047 5134 ft 236 kts 167°
2026-04-15 12:41 45.25702 8.97485 5028 ft 236 kts 168°
2026-04-15 12:41 45.24075 8.97525 4934 ft 235 kts 196°
2026-04-15 12:41 45.22692 8.96362 4894 ft 234 kts 228°
2026-04-15 12:42 45.21916 8.94363 4849 ft 234 kts 259°
2026-04-15 12:42 45.21604 8.92098 4825 ft 235 kts 260°
2026-04-15 12:42 45.21315 8.89824 4767 ft 234 kts 260°
2026-04-15 12:42 45.21064 8.87553 4701 ft 233 kts 271°
2026-04-15 12:43 45.21494 8.85388 4675 ft 230 kts 307°
2026-04-15 12:43 45.22683 8.83933 4671 ft 228 kts 341°
2026-04-15 12:43 45.24222 8.83636 4689 ft 224 kts
2026-04-15 12:43 45.25790 8.83578 4672 ft 227 kts 352°
2026-04-15 12:44 45.27340 8.83175 4642 ft 225 kts 351°
2026-04-15 12:44 45.28858 8.82762 4582 ft 219 kts 351°
2026-04-15 12:44 45.30324 8.82360 4518 ft 217 kts 351°
2026-04-15 12:44 45.31799 8.81956 4443 ft 215 kts 351°
2026-04-15 12:45 45.37808 8.80312 4196 ft 214 kts 350°
2026-04-15 12:45 45.40108 8.79688 4155 ft 215 kts 350°
2026-04-15 12:45 45.41567 8.79290 4096 ft 209 kts 349°
2026-04-15 12:45 45.42959 8.78906 4002 ft 199 kts 349°
2026-04-15 12:46 45.44323 8.78530 3927 ft 208 kts 349°
2026-04-15 12:46 45.45865 8.78105 4004 ft 242 kts 349°
2026-04-15 12:46 45.47495 8.77654 4079 ft 230 kts 349°
2026-04-15 12:46 45.49043 8.77229 4082 ft 225 kts 349°
2026-04-15 12:47 45.50563 8.76811 3637 ft 221 kts 348°
2026-04-15 12:47 45.52059 8.76398 3146 ft 217 kts 348°
2026-04-15 12:47 45.53517 8.75992 2673 ft 208 kts 348°
2026-04-15 12:47 45.54896 8.75611 2272 ft 194 kts 347°
2026-04-15 12:48 45.56161 8.75248 1928 ft 177 kts 348°
2026-04-15 12:48 45.57345 8.74873 1447 ft 170 kts 346°
2026-04-15 12:48 45.58454 8.74521 1184 ft 158 kts 347°
2026-04-15 12:48 45.59511 8.74262 931 ft 151 kts 348°
2026-04-15 12:49 45.60677 8.73950 914 ft 175 kts 351°
2026-04-15 12:49 45.61838 8.73663 751 ft 169 kts 349°
2026-04-15 12:49 45.62703 8.73435 733 ft 147 kts 352°
2026-04-15 12:49 45.63136 8.73320 734 ft 106 kts 348°
2026-04-15 12:50 45.63572 8.73196 747 ft 45 kts 343°
2026-04-15 12:50 45.63762 8.73024 748 ft 41 kts 311°
2026-04-15 12:50 45.63913 8.72711 755 ft 31 kts 303°
2026-04-15 12:50 45.63955 8.72514 752 ft 19 kts 257°
2026-04-15 12:51 45.63928 8.72341 764 ft 16 kts 259°
2026-04-15 12:51 45.63911 8.72190 764 ft 14 kts 268°
2026-04-15 12:51 45.63912 8.72027 765 ft 24 kts 268°
2026-04-15 12:51 45.63850 8.71821 765 ft 13 kts 204°
2026-04-15 12:52 45.63719 8.71844 757 ft 27 kts 169°
2026-04-15 12:52 45.63478 8.71907 754 ft 43 kts 169°
2026-04-15 12:52 45.63176 8.72003 748 ft 44 kts 167°
2026-04-15 12:52 45.62884 8.72078 742 ft 42 kts 169°
2026-04-15 12:53 45.62606 8.72158 736 ft 38 kts 168°
2026-04-15 12:53 45.62395 8.72216 733 ft 26 kts 170°
2026-04-15 12:53 45.62226 8.72239 730 ft 11 kts 200°
2026-04-15 12:53 45.62202 8.72162 729 ft 14 kts 261°
2026-04-15 12:54 45.62169 8.71979 729 ft 13 kts 233°
2026-04-15 12:54 45.62138 8.71970 729 ft 7 kts 169°
2026-04-15 12:54 45.62012 8.72008 726 ft 25 kts 167°
2026-04-15 12:54 45.61828 8.72065 724 ft 30 kts 168°
2026-04-15 12:55 45.61656 8.72100 718 ft 12 kts 192°
2026-04-15 12:55 45.61637 8.72079 722 ft 3 kts 234°
2026-04-15 12:55 45.61632 8.72039 720 ft 7 kts 262°
2026-04-15 12:55 45.61626 8.71978 718 ft 0 kts 261°